Location: ????????
(60.4333°N, 46.4710°E)
Time: 02:42:26
(UTC+00:00)

Cosmos 1980 - Pass Details

Date: 25 November 2020
Orbit: 840 x 846 km, 71.0° (Epoch: 19 January)

Event Time Altitude Azimuth Distance (km) Brightness Sun altitude
Rises 16:08:26 0° 237° (WSW) 3,404 7.5 -28.8°
Reaches altitude 10° 16:10:56 10° 241° (WSW) 2,471 6.7 -29.1°
Maximum altitude 16:16:32 58° 321° (NW) 986 4.1 -29.8°
Enters shadow 16:17:05 55° 346° (NNW) 1,013 4.1 -29.8°
